Location: Unspecified
(0.0000°N, 0.0000°E)
Time: 18:12:15
(UTC+00:00)

DMSP 5D-3 F18 (USA 210) - Pass Details

Date: 26 February 2019
Orbit: 840 x 856 km, 98.6° (Epoch: 22 October)

Event Time Altitude Azimuth Distance (km) Brightness Sun altitude
Rises 05:36:37 0° 7° (N) 3,408 7.8 -9.0°
Reaches altitude 10° 05:39:00 10° 4° (N) 2,474 7.1 -8.4°
Maximum altitude 05:44:27 67° 283° (WNW) 921 4.7 -7.0°
Drops below altitude 10° 05:49:54 10° 201° (SSW) 2,474 7.0 -5.7°
Sets 05:52:17 0° 198° (SSW) 3,409 7.8 -5.1°
